Location: Unspecified
(41.5000°N, 0.0000°E)
Time: 23:53:12
(UTC+00:00)

Vanguard 3 - Pass Details

Date: 22 June 2019
Orbit: 507 x 3264 km, 33.4° (Epoch: 20 July)

Event Time Altitude Azimuth Distance (km) Brightness Sun altitude
Rises 07:34:33 0° 187° (S) 7,104 11.9 32.3°
Reaches altitude 10° 07:44:37 10° 162° (SSE) 5,635 11.7 34.1°
Maximum altitude 07:49:24 12° 145° (SE) 5,152 11.8 35.0°
Drops below altitude 10° 07:53:42 10° 127° (SE) 4,956 12.0 35.8°
Sets 08:00:40 0° 100° (E) 5,274 12.2 37.1°
